QPF
0.05 0.03 0.02 0.02 0.01 0.02 0.02 0.03 0.02 0.02 0.01 0.01 0.01 0.01 0.01 0.00 0.01 0.01 0.02 0.04 0.05 0.04 0.04 0.04 0.05 0.07 0.07 0.03 0.03 0.03 0.04 0.04 0.03 0.04 0.04 0.04 0.04 0.05 0.05 0.05 0.05 0.06 0.06 0.06 0.05 0.05 0.06 0.07 0.07
0.03 0.01 0.02 0.01 0.01 0.01 0.02 0.02 0.02 0.01 0.01 0.00 0.01 0.01 0.01 0.01 0.00 0.01 0.01 0.03 0.04 0.04 0.05 0.05 0.05 0.05 0.05 0.04 0.03 0.03 0.04 0.04 0.04 0.04 0.05 0.05 0.05 0.06 0.06 0.05 0.05 0.06 0.06 0.07 0.06 0.05 0.06 0.07 0.09
0.01 0.02 0.02 0.01 0.01 0.02 0.02 0.03 0.03 0.02 0.01 0.00 0.01 0.01 0.01 0.01 0.01 0.01 0.01 0.01 0.02 0.04 0.06 0.06 0.05 0.04 0.04 0.04 0.03 0.03 0.04 0.04 0.03 0.03 0.03 0.04 0.05 0.05 0.05 0.05 0.05 0.05 0.05 0.08 0.08 0.06 0.08 0.08 0.08
0.01 0.02 0.01 0.00 0.01 0.02 0.02 0.02 0.01 0.01 0.01 0.00 0.01 0.00 0.01 0.01 0.01 0.01 0.02 0.02 0.02 0.05 0.06 0.04 0.03 0.03 0.03 0.03 0.03 0.03 0.03 0.02 0.01 0.01 0.01 0.02 0.02 0.03 0.07 0.07 0.06 0.05 0.05 0.06 0.09 0.10 0.10 0.09 0.10
0.02 0.01 0.00 0.00 0.01 0.01 0.01 0.00 0.00 0.00 0.01 0.01 0.00 0.00 0.00 0.01 0.02 0.01 0.02 0.02 0.03 0.03 0.02 0.02 0.03 0.02 0.02 0.02 0.02 0.01 0.01 0.01 0.01 0.01 0.01 0.01 0.01 0.02 0.06 0.09 0.09 0.08 0.07 0.07 0.07 0.08 0.08 0.09 0.13
0.01 0.00 0.00 0.00 0.01 0.01 0.00 0.00 0.00 0.01 0.01 0.01 0.00 0.00 0.00 0.01 0.02 0.01 0.01 0.01 0.01 0.01 0.01 0.01 0.01 0.02 0.03 0.02 0.02 0.02 0.02 0.01 0.01 0.01 0.01 0.01 0.01 0.02 0.03 0.04 0.06 0.08 0.10 0.09 0.08 0.09 0.10 0.08 0.11
0.00 0.00 0.00 0.00 0.00 0.01 0.00 0.00 0.01 0.01 0.01 0.00 0.00 0.00 0.00 0.01 0.02 0.02 0.01 0.01 0.01 0.01 0.01 0.00 0.00 0.01 0.02 0.01 0.01 0.01 0.01 0.01 0.01 0.01 0.01 0.01 0.01 0.01 0.03 0.05 0.06 0.08 0.08 0.08 0.10 0.14 0.10 0.06 0.08
0.00 0.00 0.00 0.00 0.01 0.01 0.01 0.01 0.01 0.02 0.01 0.00 0.00 0.00 0.00 0.01 0.02 0.02 0.01 0.01 0.01 0.01 0.01 0.01 0.00 0.00 0.01 0.01 0.00 0.00 0.01 0.01 0.01 0.01 0.01 0.01 0.01 0.02 0.02 0.04 0.06 0.08 0.13 0.15 0.16 0.13 0.08 0.07 0.08
0.00 0.00 0.01 0.01 0.01 0.01 0.02 0.03 0.03 0.03 0.02 0.00 0.00 0.00 0.00 0.00 0.01 0.01 0.01 0.00 0.01 0.01 0.00 0.00 0.00 0.00 0.01 0.01 0.00 0.00 0.00 0.00 0.00 0.01 0.01 0.01 0.01 0.01 0.02 0.04 0.05 0.06 0.08 0.10 0.12 0.11 0.08 0.07 0.07
0.01 0.01 0.00 0.00 0.00 0.01 0.02 0.03 0.03 0.03 0.03 0.01 0.01 0.00 0.00 0.00 0.00 0.01 0.00 0.00 0.00 0.00 0.00 0.00 0.01 0.01 0.01 0.00 0.00 0.00 0.00 0.00 0.01 0.00 0.00 0.00 0.00 0.02 0.02 0.02 0.04 0.05 0.07 0.05 0.05 0.05 0.04 0.04 0.04
0.00 0.01 0.00 0.00 0.00 0.00 0.01 0.01 0.02 0.02 0.02 0.01 0.01 0.00 0.00 0.00 0.00 0.00 0.00 0.00 0.00 0.00 0.00 0.00 0.01 0.01 0.01 0.00 0.01 0.01 0.00 0.00 0.00 0.01 0.01 0.00 0.01 0.01 0.01 0.01 0.02 0.04 0.11 0.15 0.06 0.03 0.02 0.02 0.02
0.01 0.01 0.00 0.00 0.01 0.01 0.01 0.01 0.01 0.01 0.01 0.01 0.01 0.00 0.00 0.01 0.00 0.00 0.00 0.00 0.00 0.00 0.00 0.00 0.00 0.00 0.00 0.00 0.00 0.01 0.00 0.01 0.00 0.01 0.01 0.01 0.01 0.01 0.01 0.01 0.03 0.07 0.16 0.27 0.16 0.06 0.03 0.03 0.02
0.01 0.01 0.00 0.01 0.01 0.01 0.01 0.01 0.01 0.01 0.01 0.01 0.01 0.01 0.00 0.01 0.00 0.01 0.01 0.01 0.00 0.00 0.00 0.00 0.00 0.00 0.00 0.00 0.00 0.01 0.01 0.01 0.00 0.00 0.00 0.01 0.01 0.00 0.01 0.01 0.03 0.08 0.15 0.28 0.23 0.10 0.04 0.03 0.02
0.00 0.00 0.01 0.01 0.01 0.02 0.02 0.01 0.01 0.01 0.01 0.02 0.01 0.01 0.01 0.01 0.00 0.01 0.01 0.00 0.00 0.00 0.00 0.00 0.00 0.01 0.00 0.00 0.00 0.00 0.01 0.01 0.01 0.00 0.00 0.01 0.01 0.01 0.00 0.01 0.02 0.07 0.12 0.20 0.22 0.13 0.05 0.03 0.02
0.00 0.00 0.01 0.02 0.02 0.03 0.03 0.01 0.01 0.00 0.01 0.02 0.02 0.01 0.01 0.01 0.01 0.00 0.00 0.00 0.00 0.00 0.00 0.00 0.00 0.01 0.00 0.00 0.00 0.00 0.01 0.01 0.01 0.01 0.01 0.01 0.01 0.01 0.01 0.01 0.03 0.06 0.09 0.11 0.12 0.08 0.04 0.03 0.02
0.00 0.01 0.01 0.01 0.02 0.02 0.03 0.01 0.01 0.01 0.01 0.02 0.02 0.02 0.02 0.01 0.00 0.00 0.00 0.00 0.00 0.01 0.01 0.01 0.00 0.01 0.01 0.01 0.00 0.01 0.01 0.01 0.01 0.01 0.01 0.00 0.00 0.01 0.01 0.01 0.03 0.05 0.07 0.08 0.07 0.04 0.03 0.02 0.01
0.00 0.01 0.01 0.01 0.01 0.01 0.01 0.01 0.01 0.01 0.01 0.01 0.01 0.02 0.02 0.01 0.00 0.00 0.00 0.00 0.00 0.01 0.01 0.01 0.01 0.01 0.01 0.01 0.01 0.01 0.01 0.01 0.01 0.02 0.01 0.01 0.01 0.01 0.01 0.01 0.02 0.04 0.06 0.07 0.05 0.03 0.03 0.03 0.03
0.00 0.00 0.01 0.01 0.01 0.01 0.01 0.00 0.00 0.01 0.01 0.01 0.01 0.01 0.01 0.01 0.00 0.00 0.00 0.00 0.01 0.01 0.01 0.01 0.01 0.01 0.01 0.01 0.01 0.01 0.00 0.01 0.01 0.02 0.01 0.01 0.01 0.01 0.01 0.02 0.03 0.04 0.06 0.06 0.04 0.03 0.04 0.05 0.04
0.00 0.00 0.01 0.01 0.00 0.01 0.01 0.01 0.00 0.01 0.01 0.01 0.00 0.00 0.00 0.00 0.00 0.00 0.00 0.00 0.01 0.01 0.02 0.01 0.01 0.02 0.01 0.01 0.00 0.00 0.01 0.01 0.01 0.01 0.01 0.01 0.01 0.01 0.01 0.01 0.03 0.04 0.05 0.06 0.05 0.04 0.05 0.06 0.05
0.00 0.01 0.01 0.02 0.01 0.01 0.01 0.01 0.00 0.01 0.01 0.01 0.01 0.00 0.00 0.00 0.00 0.00 0.00 0.00 0.01 0.01 0.01 0.01 0.01 0.01 0.01 0.01 0.01 0.00 0.00 0.00 0.00 0.00 0.01 0.01 0.01 0.01 0.01 0.01 0.02 0.03 0.04 0.05 0.04 0.05 0.07 0.07 0.07
0.00 0.01 0.01 0.02 0.02 0.01 0.01 0.00 0.00 0.00 0.00 0.00 0.00 0.00 0.00 0.00 0.00 0.00 0.01 0.01 0.01 0.01 0.01 0.01 0.01 0.01 0.01 0.01 0.01 0.01 0.00 0.00 0.00 0.01 0.01 0.01 0.01 0.01 0.01 0.01 0.01 0.01 0.01 0.02 0.04 0.06 0.07 0.07 0.07
0.00 0.01 0.01 0.01 0.02 0.01 0.00 0.01 0.00 0.00 0.00 0.00 0.00 0.00 0.00 0.00 0.00 0.00 0.00 0.00 0.00 0.00 0.01 0.01 0.01 0.02 0.02 0.02 0.02 0.01 0.01 0.01 0.01 0.01 0.01 0.01 0.02 0.02 0.02 0.03 0.03 0.02 0.01 0.01 0.02 0.02 0.03 0.04 0.04
0.00 0.00 0.01 0.02 0.02 0.01 0.00 0.00 0.00 0.00 0.01 0.00 0.00 0.00 0.00 0.00 0.00 0.00 0.00 0.00 0.00 0.00 0.01 0.01 0.01 0.02 0.02 0.02 0.02 0.02 0.01 0.02 0.02 0.02 0.01 0.01 0.02 0.02 0.03 0.03 0.04 0.04 0.03 0.02 0.02 0.02 0.02 0.02 0.02
0.00 0.00 0.01 0.02 0.02 0.01 0.00 0.00 0.00 0.00 0.00 0.00 0.00 0.00 0.00 0.00 0.00 0.00 0.00 0.00 0.00 0.00 0.01 0.01 0.01 0.02 0.02 0.02 0.02 0.03 0.03 0.03 0.03 0.03 0.02 0.01 0.01 0.01 0.02 0.03 0.04 0.05 0.05 0.05 0.03 0.04 0.04 0.03 0.02
0.00 0.01 0.02 0.02 0.02 0.01 0.00 0.00 0.00 0.00 0.00 0.00 0.00 0.00 0.00 0.00 0.00 0.00 0.00 0.00 0.00 0.00 0.01 0.01 0.02 0.03 0.03 0.02 0.02 0.02 0.03 0.03 0.03 0.03 0.02 0.02 0.01 0.01 0.01 0.02 0.03 0.03 0.04 0.05 0.05 0.04 0.04 0.03 0.02
0.00 0.01 0.01 0.01 0.01 0.01 0.00 0.00 0.00 0.00 0.00 0.00 0.00 0.00 0.00 0.00 0.00 0.00 0.00 0.00 0.00 0.00 0.01 0.02 0.03 0.02 0.02 0.02 0.02 0.02 0.02 0.03 0.03 0.03 0.02 0.02 0.01 0.01 0.01 0.01 0.02 0.03 0.04 0.04 0.05 0.04 0.04 0.04 0.03
0.00 0.00 0.01 0.01 0.00 0.00 0.00 0.00 0.00 0.00 0.00 0.00 0.00 0.00 0.00 0.00 0.00 0.00 0.00 0.00 0.00 0.00 0.01 0.01 0.03 0.02 0.01 0.01 0.02 0.02 0.02 0.02 0.02 0.02 0.02 0.01 0.01 0.01 0.02 0.02 0.03 0.03 0.04 0.04 0.04 0.04 0.04 0.04 0.04
0.00 0.00 0.00 0.00 0.00 0.00 0.00 0.00 0.00 0.00 0.00 0.00 0.00 0.00 0.00 0.01 0.01 0.00 0.00 0.00 0.00 0.01 0.01 0.01 0.01 0.02 0.03 0.02 0.02 0.02 0.02 0.02 0.02 0.02 0.02 0.01 0.01 0.01 0.02 0.02 0.02 0.02 0.02 0.03 0.04 0.04 0.04 0.05 0.04
0.00 0.00 0.00 0.00 0.00 0.00 0.00 0.00 0.00 0.00 0.00 0.00 0.00 0.00 0.00 0.00 0.01 0.01 0.00 0.00 0.00 0.01 0.01 0.01 0.01 0.02 0.02 0.02 0.02 0.01 0.02 0.02 0.02 0.02 0.02 0.02 0.01 0.02 0.01 0.01 0.01 0.01 0.01 0.02 0.03 0.04 0.05 0.05 0.05
0.00 0.00 0.00 0.00 0.00 0.00 0.00 0.00 0.00 0.00 0.00 0.00 0.00 0.00 0.00 0.00 0.00 0.01 0.01 0.01 0.01 0.02 0.01 0.01 0.01 0.02 0.01 0.01 0.01 0.01 0.02 0.02 0.02 0.02 0.01 0.02 0.02 0.02 0.02 0.01 0.01 0.01 0.01 0.01 0.02 0.03 0.04 0.05 0.05
MSLP
1008.51 1009.52 1010.84 1012.34 1013.86 1015.25 1016.35 1017.12 1017.53 1017.64 1017.56 1017.42 1017.32 1017.32 1017.41 1017.55 1017.68 1017.70 1017.56 1017.26 1016.83 1016.33 1015.86 1015.49 1015.28 1015.22 1015.28 1015.38 1015.46 1015.45 1015.34 1015.13 1014.87 1014.63 1014.46 1014.38 1014.41 1014.50 1014.62 1014.71 1014.73 1014.68 1014.56 1014.42 1014.28 1014.18 1014.13 1014.13 1014.17
1009.30 1010.47 1011.90 1013.42 1014.87 1016.11 1017.01 1017.53 1017.70 1017.60 1017.37 1017.13 1016.98 1016.97 1017.08 1017.26 1017.42 1017.48 1017.38 1017.11 1016.72 1016.28 1015.87 1015.58 1015.43 1015.43 1015.54 1015.68 1015.79 1015.81 1015.73 1015.56 1015.34 1015.14 1015.00 1014.94 1014.95 1015.02 1015.10 1015.14 1015.12 1015.04 1014.91 1014.77 1014.65 1014.57 1014.54 1014.56 1014.61
1010.16 1011.45 1012.92 1014.41 1015.75 1016.81 1017.49 1017.78 1017.74 1017.48 1017.14 1016.84 1016.66 1016.66 1016.79 1016.99 1017.17 1017.24 1017.16 1016.92 1016.58 1016.20 1015.87 1015.64 1015.57 1015.63 1015.78 1015.95 1016.09 1016.14 1016.09 1015.97 1015.79 1015.63 1015.51 1015.46 1015.46 1015.49 1015.51 1015.50 1015.45 1015.34 1015.21 1015.08 1014.98 1014.94 1014.95 1015.00 1015.06
1011.05 1012.42 1013.89 1015.30 1016.50 1017.36 1017.84 1017.94 1017.74 1017.37 1016.96 1016.64 1016.47 1016.47 1016.61 1016.81 1016.98 1017.05 1016.97 1016.76 1016.46 1016.14 1015.87 1015.72 1015.71 1015.81 1015.99 1016.18 1016.34 1016.41 1016.39 1016.30 1016.17 1016.05 1015.96 1015.91 1015.90 1015.90 1015.89 1015.84 1015.74 1015.62 1015.50 1015.39 1015.34 1015.33 1015.38 1015.46 1015.55
1011.94 1013.34 1014.76 1016.06 1017.10 1017.78 1018.08 1018.04 1017.74 1017.32 1016.90 1016.59 1016.44 1016.46 1016.60 1016.78 1016.92 1016.97 1016.88 1016.67 1016.41 1016.14 1015.93 1015.83 1015.86 1015.99 1016.18 1016.37 1016.51 1016.59 1016.59 1016.53 1016.45 1016.38 1016.33 1016.31 1016.30 1016.29 1016.26 1016.18 1016.07 1015.94 1015.83 1015.76 1015.74 1015.78 1015.86 1015.97 1016.07
1012.80 1014.18 1015.51 1016.67 1017.53 1018.05 1018.22 1018.09 1017.76 1017.34 1016.97 1016.71 1016.61 1016.65 1016.78 1016.93 1017.02 1017.02 1016.90 1016.69 1016.44 1016.21 1016.04 1015.98 1016.03 1016.16 1016.33 1016.49 1016.61 1016.67 1016.69 1016.66 1016.63 1016.62 1016.62 1016.65 1016.68 1016.68 1016.65 1016.57 1016.46 1016.34 1016.25 1016.20 1016.21 1016.28 1016.39 1016.51 1016.61
1013.59 1014.89 1016.09 1017.09 1017.79 1018.17 1018.24 1018.07 1017.77 1017.42 1017.13 1016.96 1016.92 1016.99 1017.10 1017.21 1017.24 1017.18 1017.02 1016.79 1016.55 1016.34 1016.20 1016.16 1016.21 1016.32 1016.45 1016.57 1016.65 1016.69 1016.70 1016.71 1016.73 1016.78 1016.87 1016.96 1017.04 1017.09 1017.08 1017.02 1016.93 1016.82 1016.75 1016.72 1016.76 1016.84 1016.96 1017.08 1017.17
1014.27 1015.45 1016.49 1017.31 1017.86 1018.12 1018.14 1017.98 1017.74 1017.50 1017.33 1017.27 1017.30 1017.40 1017.50 1017.56 1017.53 1017.40 1017.19 1016.94 1016.70 1016.50 1016.38 1016.35 1016.39 1016.46 1016.55 1016.61 1016.65 1016.66 1016.68 1016.71 1016.79 1016.92 1017.09 1017.26 1017.41 1017.51 1017.54 1017.52 1017.45 1017.37 1017.31 1017.30 1017.35 1017.44 1017.55 1017.66 1017.73
1014.83 1015.86 1016.72 1017.36 1017.76 1017.93 1017.91 1017.80 1017.65 1017.54 1017.51 1017.56 1017.67 1017.80 1017.89 1017.90 1017.81 1017.62 1017.36 1017.09 1016.84 1016.65 1016.55 1016.52 1016.55 1016.60 1016.64 1016.66 1016.66 1016.65 1016.66 1016.73 1016.86 1017.06 1017.30 1017.56 1017.78 1017.94 1018.02 1018.03 1017.99 1017.93 1017.89 1017.90 1017.95 1018.04 1018.15 1018.24 1018.29
1015.28 1016.13 1016.81 1017.28 1017.54 1017.64 1017.62 1017.56 1017.51 1017.54 1017.64 1017.80 1017.98 1018.13 1018.21 1018.17 1018.02 1017.78 1017.48 1017.19 1016.94 1016.77 1016.68 1016.67 1016.70 1016.73 1016.75 1016.74 1016.71 1016.69 1016.71 1016.80 1016.98 1017.24 1017.54 1017.86 1018.14 1018.35 1018.47 1018.52 1018.51 1018.47 1018.45 1018.47 1018.53 1018.62 1018.73 1018.81 1018.85
1015.64 1016.33 1016.84 1017.15 1017.30 1017.34 1017.32 1017.31 1017.37 1017.51 1017.72 1017.97 1018.21 1018.38 1018.43 1018.35 1018.15 1017.86 1017.54 1017.23 1016.99 1016.85 1016.79 1016.80 1016.84 1016.88 1016.90 1016.88 1016.85 1016.83 1016.86 1016.97 1017.17 1017.46 1017.80 1018.15 1018.46 1018.71 1018.87 1018.94 1018.96 1018.96 1018.96 1018.99 1019.07 1019.18 1019.29 1019.38 1019.42
1015.97 1016.52 1016.88 1017.06 1017.12 1017.11 1017.10 1017.15 1017.28 1017.51 1017.81 1018.12 1018.38 1018.55 1018.58 1018.47 1018.22 1017.90 1017.55 1017.24 1017.02 1016.90 1016.87 1016.91 1016.99 1017.06 1017.10 1017.10 1017.08 1017.08 1017.12 1017.23 1017.44 1017.74 1018.08 1018.43 1018.75 1019.01 1019.19 1019.29 1019.34 1019.36 1019.40 1019.47 1019.58 1019.71 1019.85 1019.96 1020.02
1016.34 1016.77 1017.01 1017.10 1017.09 1017.05 1017.04 1017.12 1017.31 1017.59 1017.93 1018.27 1018.54 1018.69 1018.70 1018.54 1018.27 1017.92 1017.56 1017.25 1017.04 1016.95 1016.96 1017.05 1017.18 1017.29 1017.37 1017.42 1017.43 1017.44 1017.49 1017.60 1017.79 1018.06 1018.37 1018.70 1019.00 1019.25 1019.43 1019.55 1019.63 1019.69 1019.78 1019.89 1020.04 1020.22 1020.40 1020.55 1020.64
1016.79 1017.13 1017.28 1017.30 1017.25 1017.19 1017.19 1017.28 1017.49 1017.79 1018.13 1018.46 1018.72 1018.84 1018.82 1018.64 1018.34 1017.97 1017.61 1017.31 1017.12 1017.05 1017.09 1017.22 1017.40 1017.57 1017.71 1017.80 1017.86 1017.90 1017.95 1018.05 1018.21 1018.42 1018.67 1018.94 1019.20 1019.43 1019.61 1019.74 1019.86 1019.97 1020.10 1020.27 1020.47 1020.70 1020.92 1021.12 1021.26
1017.32 1017.59 1017.69 1017.67 1017.59 1017.53 1017.53 1017.62 1017.82 1018.10 1018.42 1018.71 1018.93 1019.02 1018.96 1018.76 1018.45 1018.09 1017.73 1017.44 1017.26 1017.20 1017.27 1017.44 1017.66 1017.89 1018.09 1018.24 1018.35 1018.42 1018.48 1018.55 1018.66 1018.81 1018.99 1019.19 1019.39 1019.58 1019.75 1019.90 1020.05 1020.21 1020.39 1020.61 1020.87 1021.14 1021.41 1021.64 1021.82
1017.89 1018.11 1018.18 1018.14 1018.07 1018.01 1018.01 1018.09 1018.26 1018.49 1018.75 1018.99 1019.15 1019.20 1019.12 1018.92 1018.61 1018.26 1017.92 1017.64 1017.47 1017.42 1017.50 1017.69 1017.94 1018.22 1018.47 1018.69 1018.85 1018.96 1019.03 1019.08 1019.15 1019.23 1019.33 1019.45 1019.59 1019.74 1019.89 1020.06 1020.23 1020.43 1020.66 1020.93 1021.22 1021.52 1021.82 1022.09 1022.30
1018.44 1018.62 1018.68 1018.66 1018.60 1018.56 1018.55 1018.61 1018.72 1018.88 1019.06 1019.22 1019.32 1019.34 1019.25 1019.05 1018.78 1018.46 1018.14 1017.88 1017.72 1017.67 1017.75 1017.94 1018.22 1018.53 1018.84 1019.11 1019.33 1019.48 1019.57 1019.62 1019.64 1019.66 1019.70 1019.75 1019.83 1019.94 1020.07 1020.23 1020.43 1020.66 1020.92 1021.21 1021.52 1021.83 1022.14 1022.42 1022.65
1018.89 1019.06 1019.12 1019.13 1019.11 1019.09 1019.08 1019.10 1019.14 1019.21 1019.29 1019.35 1019.39 1019.37 1019.27 1019.11 1018.88 1018.62 1018.35 1018.12 1017.96 1017.92 1017.99 1018.17 1018.46 1018.79 1019.14 1019.47 1019.74 1019.95 1020.07 1020.13 1020.13 1020.11 1020.09 1020.09 1020.11 1020.18 1020.30 1020.45 1020.66 1020.90 1021.16 1021.46 1021.76 1022.06 1022.36 1022.63 1022.86
1019.19 1019.35 1019.45 1019.51 1019.55 1019.55 1019.54 1019.50 1019.46 1019.41 1019.37 1019.32 1019.28 1019.22 1019.14 1019.02 1018.86 1018.67 1018.47 1018.29 1018.17 1018.12 1018.18 1018.36 1018.63 1018.98 1019.37 1019.75 1020.08 1020.34 1020.51 1020.59 1020.61 1020.57 1020.51 1020.46 1020.45 1020.49 1020.58 1020.72 1020.91 1021.14 1021.40 1021.67 1021.95 1022.22 1022.48 1022.73 1022.96
1019.31 1019.49 1019.65 1019.79 1019.89 1019.93 1019.90 1019.80 1019.65 1019.46 1019.27 1019.11 1018.98 1018.88 1018.81 1018.75 1018.68 1018.59 1018.48 1018.37 1018.28 1018.26 1018.31 1018.47 1018.74 1019.09 1019.50 1019.92 1020.31 1020.64 1020.87 1021.00 1021.03 1021.00 1020.94 1020.87 1020.83 1020.84 1020.90 1021.03 1021.20 1021.41 1021.64 1021.87 1022.10 1022.33 1022.55 1022.76 1022.98
1019.28 1019.51 1019.77 1020.01 1020.18 1020.26 1020.20 1020.02 1019.73 1019.38 1019.02 1018.71 1018.48 1018.34 1018.29 1018.29 1018.32 1018.35 1018.35 1018.33 1018.30 1018.30 1018.36 1018.51 1018.76 1019.11 1019.54 1020.00 1020.44 1020.83 1021.12 1021.31 1021.40 1021.40 1021.35 1021.28 1021.23 1021.22 1021.27 1021.37 1021.52 1021.69 1021.88 1022.07 1022.26 1022.44 1022.61 1022.79 1022.98
1019.17 1019.49 1019.86 1020.21 1020.47 1020.57 1020.47 1020.18 1019.74 1019.20 1018.66 1018.19 1017.84 1017.65 1017.60 1017.67 1017.81 1017.96 1018.09 1018.18 1018.23 1018.27 1018.35 1018.49 1018.72 1019.06 1019.49 1019.97 1020.46 1020.90 1021.26 1021.52 1021.66 1021.71 1021.70 1021.65 1021.61 1021.60 1021.64 1021.72 1021.85 1021.99 1022.15 1022.31 1022.45 1022.58 1022.71 1022.86 1023.02
1019.08 1019.52 1020.02 1020.48 1020.80 1020.91 1020.76 1020.35 1019.73 1018.99 1018.24 1017.60 1017.12 1016.87 1016.82 1016.95 1017.20 1017.48 1017.74 1017.94 1018.08 1018.18 1018.28 1018.41 1018.63 1018.96 1019.38 1019.86 1020.37 1020.86 1021.28 1021.60 1021.82 1021.93 1021.96 1021.96 1021.94 1021.95 1021.99 1022.07 1022.18 1022.32 1022.45 1022.58 1022.70 1022.80 1022.90 1023.01 1023.15
1019.11 1019.67 1020.29 1020.85 1021.22 1021.31 1021.07 1020.52 1019.71 1018.77 1017.82 1017.00 1016.40 1016.07 1016.03 1016.21 1016.55 1016.95 1017.34 1017.65 1017.88 1018.04 1018.16 1018.30 1018.50 1018.80 1019.20 1019.68 1020.20 1020.72 1021.18 1021.56 1021.84 1022.01 1022.11 1022.16 1022.19 1022.23 1022.30 1022.40 1022.52 1022.65 1022.79 1022.91 1023.01 1023.10 1023.18 1023.26 1023.38
1019.31 1019.98 1020.69 1021.30 1021.68 1021.73 1021.39 1020.69 1019.70 1018.56 1017.43 1016.44 1015.73 1015.34 1015.27 1015.50 1015.91 1016.41 1016.91 1017.33 1017.65 1017.86 1018.01 1018.15 1018.34 1018.61 1018.98 1019.44 1019.95 1020.48 1020.97 1021.40 1021.73 1021.98 1022.14 1022.26 1022.35 1022.44 1022.55 1022.68 1022.83 1022.99 1023.14 1023.27 1023.38 1023.46 1023.54 1023.61 1023.70
1019.70 1020.43 1021.19 1021.81 1022.15 1022.12 1021.67 1020.82 1019.66 1018.35 1017.06 1015.95 1015.14 1014.69 1014.62 1014.86 1015.33 1015.90 1016.48 1016.98 1017.37 1017.63 1017.81 1017.96 1018.13 1018.38 1018.71 1019.14 1019.64 1020.16 1020.67 1021.13 1021.51 1021.82 1022.05 1022.24 1022.40 1022.56 1022.73 1022.92 1023.11 1023.31 1023.49 1023.65 1023.78 1023.88 1023.95 1024.01 1024.08
1020.23 1020.97 1021.70 1022.27 1022.54 1022.40 1021.82 1020.84 1019.56 1018.13 1016.73 1015.53 1014.66 1014.17 1014.08 1014.33 1014.82 1015.44 1016.06 1016.61 1017.04 1017.34 1017.54 1017.70 1017.87 1018.10 1018.41 1018.81 1019.28 1019.80 1020.31 1020.79 1021.21 1021.57 1021.87 1022.13 1022.36 1022.59 1022.83 1023.08 1023.34 1023.58 1023.81 1024.00 1024.16 1024.28 1024.37 1024.43 1024.48
1020.81 1021.50 1022.15 1022.61 1022.76 1022.50 1021.80 1020.72 1019.35 1017.86 1016.42 1015.19 1014.29 1013.78 1013.68 1013.91 1014.39 1015.01 1015.63 1016.19 1016.64 1016.96 1017.19 1017.36 1017.54 1017.76 1018.06 1018.45 1018.91 1019.40 1019.91 1020.40 1020.85 1021.25 1021.60 1021.93 1022.24 1022.54 1022.86 1023.17 1023.49 1023.79 1024.06 1024.30 1024.50 1024.64 1024.75 1024.82 1024.87
1021.35 1021.92 1022.43 1022.74 1022.74 1022.35 1021.56 1020.43 1019.04 1017.55 1016.13 1014.93 1014.05 1013.54 1013.41 1013.61 1014.04 1014.60 1015.19 1015.72 1016.15 1016.48 1016.72 1016.92 1017.12 1017.36 1017.67 1018.06 1018.51 1019.00 1019.50 1020.00 1020.46 1020.89 1021.29 1021.67 1022.04 1022.42 1022.80 1023.18 1023.55 1023.90 1024.22 1024.50 1024.73 1024.91 1025.05 1025.14 1025.19
1021.77 1022.18 1022.50 1022.63 1022.48 1021.98 1021.13 1019.98 1018.64 1017.22 1015.89 1014.76 1013.93 1013.43 1013.28 1013.41 1013.76 1014.22 1014.72 1015.18 1015.57 1015.88 1016.13 1016.36 1016.60 1016.89 1017.23 1017.64 1018.10 1018.59 1019.10 1019.59 1020.06 1020.51 1020.94 1021.37 1021.79 1022.22 1022.66 1023.09 1023.51 1023.91 1024.27 1024.59 1024.86 1025.07 1025.24 1025.36 1025.44
Thickness
5799 5798 5796 5783 5758 5736 5731 5740 5747 5747 5749 5756 5759 5755 5748 5743 5739 5736 5755 5764 5764 5764 5765 5765 5765 5765 5765 5766 5766 5766 5767 5767 5767 5768 5768 5768 5768 5768 5768 5768 5768 5768 5768 5768 5768 5767 5767 5767 5767
5798 5796 5785 5767 5739 5721 5728 5741 5744 5749 5755 5758 5758 5755 5749 5746 5751 5752 5757 5762 5763 5763 5763 5763 5763 5763 5763 5763 5763 5763 5764 5764 5764 5764 5765 5765 5765 5764 5765 5765 5765 5764 5764 5764 5764 5764 5764 5763 5763
5796 5792 5770 5750 5732 5724 5731 5743 5746 5754 5759 5758 5753 5753 5749 5746 5751 5753 5758 5761 5761 5761 5760 5760 5760 5760 5759 5759 5760 5760 5760 5760 5760 5761 5761 5761 5761 5761 5761 5761 5761 5760 5760 5760 5760 5760 5760 5760 5759
5789 5775 5761 5741 5731 5736 5741 5746 5751 5752 5756 5757 5752 5746 5748 5754 5754 5756 5760 5760 5758 5757 5757 5756 5756 5756 5756 5756 5756 5756 5756 5756 5756 5756 5756 5756 5756 5756 5756 5757 5757 5756 5756 5756 5756 5756 5756 5756 5755
5781 5761 5741 5729 5732 5740 5746 5751 5753 5748 5748 5750 5749 5741 5742 5752 5757 5757 5757 5757 5755 5753 5753 5753 5753 5752 5752 5752 5752 5752 5752 5752 5752 5752 5752 5752 5752 5752 5752 5752 5752 5752 5752 5751 5751 5751 5751 5751 5751
5762 5749 5726 5721 5730 5739 5746 5751 5750 5747 5746 5748 5745 5739 5739 5749 5751 5752 5753 5752 5751 5750 5749 5749 5748 5748 5748 5748 5748 5748 5748 5748 5748 5747 5747 5747 5747 5747 5747 5747 5747 5748 5748 5747 5747 5747 5747 5746 5746
5753 5738 5725 5726 5727 5733 5744 5751 5746 5743 5742 5743 5746 5736 5737 5744 5748 5750 5750 5748 5747 5746 5745 5744 5744 5744 5744 5744 5744 5744 5743 5743 5743 5743 5743 5743 5743 5742 5742 5742 5742 5743 5743 5743 5742 5742 5742 5741 5741
5758 5740 5726 5724 5726 5730 5744 5748 5748 5744 5742 5749 5746 5733 5731 5740 5745 5745 5744 5743 5742 5741 5741 5740 5740 5739 5739 5739 5739 5739 5739 5738 5738 5738 5738 5738 5738 5737 5737 5737 5737 5738 5738 5737 5737 5736 5736 5736 5736
5761 5731 5719 5725 5727 5732 5743 5743 5746 5749 5744 5744 5743 5740 5741 5743 5742 5739 5737 5736 5736 5736 5736 5736 5736 5735 5735 5735 5734 5734 5734 5733 5733 5733 5733 5733 5732 5732 5732 5732 5732 5732 5732 5731 5731 5730 5730 5730 5729
5748 5724 5728 5737 5738 5737 5740 5740 5741 5739 5734 5734 5736 5738 5740 5739 5736 5733 5731 5729 5730 5730 5732 5732 5732 5732 5731 5731 5730 5729 5729 5728 5728 5727 5727 5727 5727 5726 5726 5726 5726 5726 5725 5725 5725 5724 5724 5723 5723
5745 5731 5737 5740 5743 5742 5738 5737 5739 5733 5725 5729 5730 5731 5733 5733 5731 5729 5728 5727 5727 5728 5728 5729 5728 5728 5727 5727 5726 5725 5724 5723 5723 5722 5722 5722 5721 5721 5720 5720 5719 5719 5719 5719 5719 5719 5718 5718 5717
5740 5739 5741 5741 5744 5741 5737 5735 5732 5730 5729 5736 5735 5734 5731 5728 5727 5726 5725 5725 5726 5725 5725 5726 5726 5725 5724 5723 5722 5720 5719 5718 5718 5717 5717 5717 5716 5715 5714 5713 5713 5713 5713 5713 5714 5713 5713 5712 5712
5736 5735 5739 5740 5740 5737 5735 5731 5728 5726 5732 5734 5733 5730 5727 5726 5725 5725 5725 5724 5724 5723 5723 5723 5723 5721 5720 5719 5717 5716 5715 5714 5713 5713 5712 5711 5710 5709 5708 5707 5707 5707 5707 5709 5709 5708 5707 5706 5706
5735 5734 5733 5735 5734 5734 5729 5726 5724 5723 5728 5728 5726 5723 5723 5723 5723 5722 5721 5721 5721 5720 5720 5720 5719 5718 5716 5714 5713 5711 5710 5710 5709 5708 5707 5706 5705 5704 5703 5703 5702 5702 5702 5702 5702 5702 5701 5700 5700
5736 5727 5725 5727 5728 5728 5727 5714 5716 5722 5723 5721 5720 5720 5719 5720 5721 5720 5720 5719 5719 5718 5718 5717 5716 5714 5712 5711 5709 5707 5706 5705 5704 5703 5702 5701 5700 5699 5698 5697 5697 5697 5697 5697 5696 5695 5695 5694 5694
5726 5714 5707 5718 5723 5724 5717 5700 5714 5718 5717 5714 5714 5715 5715 5716 5717 5718 5719 5718 5718 5716 5715 5714 5713 5711 5709 5707 5705 5703 5702 5700 5699 5698 5697 5696 5695 5694 5693 5692 5692 5692 5692 5691 5691 5690 5688 5687 5687
5706 5698 5700 5707 5717 5717 5709 5700 5710 5714 5712 5709 5708 5709 5709 5711 5713 5715 5716 5716 5715 5713 5712 5710 5709 5707 5705 5703 5701 5699 5697 5696 5694 5693 5692 5691 5690 5689 5688 5687 5686 5687 5686 5685 5685 5683 5682 5680 5680
5697 5697 5697 5698 5708 5708 5700 5699 5705 5708 5707 5703 5703 5704 5704 5705 5708 5711 5713 5713 5712 5711 5709 5707 5705 5703 5701 5698 5696 5694 5692 5691 5689 5688 5687 5686 5685 5684 5683 5682 5681 5681 5680 5679 5678 5677 5676 5675 5674
5705 5698 5692 5697 5707 5701 5695 5695 5700 5703 5701 5700 5699 5699 5700 5702 5706 5708 5709 5709 5708 5707 5705 5703 5701 5698 5697 5694 5691 5688 5686 5685 5683 5683 5681 5681 5680 5678 5677 5676 5675 5675 5673 5672 5672 5671 5669 5668 5668
5703 5693 5690 5695 5703 5698 5690 5691 5698 5699 5699 5700 5699 5698 5698 5698 5700 5702 5703 5703 5703 5702 5701 5699 5697 5695 5693 5691 5688 5685 5682 5680 5679 5677 5676 5676 5674 5673 5672 5670 5669 5668 5667 5666 5666 5665 5662 5661 5661
5699 5693 5690 5689 5693 5693 5688 5684 5690 5696 5698 5698 5698 5697 5697 5697 5696 5696 5696 5697 5697 5696 5695 5695 5693 5691 5689 5686 5683 5680 5677 5675 5672 5671 5670 5670 5669 5668 5667 5665 5664 5663 5662 5660 5660 5659 5658 5655 5654
5692 5702 5697 5691 5680 5672 5679 5665 5682 5687 5688 5692 5692 5692 5692 5693 5693 5692 5692 5691 5691 5691 5691 5690 5687 5685 5684 5681 5678 5675 5671 5667 5666 5665 5665 5664 5663 5662 5661 5660 5659 5657 5657 5655 5654 5654 5652 5651 5648
5700 5702 5694 5686 5676 5667 5669 5662 5671 5680 5681 5686 5688 5689 5690 5690 5689 5688 5688 5687 5687 5686 5685 5684 5682 5680 5677 5675 5673 5670 5666 5663 5661 5660 5659 5658 5657 5657 5656 5654 5653 5652 5651 5650 5649 5648 5647 5645 5643
5701 5691 5681 5671 5664 5656 5665 5657 5663 5672 5681 5686 5688 5687 5687 5686 5685 5684 5683 5682 5680 5680 5679 5677 5675 5673 5671 5669 5667 5664 5660 5657 5655 5653 5652 5651 5650 5650 5649 5649 5647 5646 5645 5644 5643 5642 5641 5640 5638
5691 5672 5655 5652 5643 5648 5662 5657 5664 5683 5686 5687 5685 5684 5683 5682 5679 5677 5676 5674 5673 5672 5671 5670 5668 5665 5663 5661 5659 5657 5654 5652 5649 5647 5645 5644 5642 5642 5642 5642 5641 5640 5639 5638 5637 5636 5635 5634 5633
5682 5673 5651 5642 5638 5643 5655 5652 5670 5684 5685 5686 5685 5682 5679 5676 5674 5672 5670 5668 5667 5665 5664 5663 5661 5658 5656 5654 5652 5650 5648 5645 5643 5641 5639 5638 5637 5636 5636 5635 5634 5634 5633 5632 5631 5629 5628 5627 5627
5676 5667 5666 5648 5642 5637 5643 5654 5671 5680 5678 5678 5676 5675 5672 5671 5669 5667 5664 5662 5661 5659 5658 5656 5654 5652 5650 5649 5646 5644 5641 5638 5636 5635 5633 5632 5631 5630 5629 5629 5628 5627 5626 5626 5624 5622 5621 5620 5620
5679 5666 5651 5642 5632 5628 5638 5645 5654 5668 5669 5669 5668 5667 5666 5665 5663 5660 5658 5656 5654 5653 5652 5650 5648 5646 5644 5643 5641 5639 5635 5632 5630 5628 5626 5626 5625 5624 5623 5622 5622 5621 5620 5619 5618 5616 5615 5614 5613
5665 5659 5648 5636 5633 5623 5623 5641 5668 5668 5669 5666 5665 5664 5661 5659 5657 5654 5652 5650 5648 5647 5645 5643 5641 5639 5637 5636 5634 5632 5629 5626 5624 5622 5621 5619 5618 5617 5616 5615 5615 5614 5614 5613 5611 5610 5609 5608 5606
5667 5659 5646 5635 5628 5621 5618 5638 5671 5668 5666 5664 5661 5659 5657 5654 5651 5648 5646 5643 5641 5640 5638 5636 5634 5632 5631 5630 5628 5626 5623 5620 5618 5616 5614 5613 5611 5610 5609 5609 5608 5608 5608 5607 5606 5604 5603 5601 5600